Probability
48 19 3 32 29 0 0 3 0 3 0 0 6 10 16 19 6 3 10 19 68 94 100 100 100 100 100 100 100 100 100 100 100 100 100 100 100 100 100 100 100 94 97 97 97 94 100 100 100
3 6 10 26 13 0 0 0 0 0 0 0 6 23 32 45 58 45 29 52 84 97 100 100 100 100 100 100 100 100 100 100 100 100 100 100 100 100 100 97 100 94 97 97 97 94 100 94 94
6 16 13 23 10 0 0 0 0 0 0 3 6 19 39 61 81 58 29 65 84 94 97 100 100 100 100 100 100 100 100 100 100 100 100 100 100 100 97 97 97 94 94 97 94 100 94 90 90
13 10 10 13 3 0 0 0 0 0 6 10 23 32 35 65 84 68 55 65 87 97 97 100 100 100 100 100 100 100 100 100 100 100 100 100 100 100 97 97 97 94 97 94 94 100 90 87 84
3 10 6 0 0 0 0 3 3 13 10 10 29 39 42 81 77 61 45 71 84 97 97 100 100 100 100 100 100 100 100 100 100 100 100 100 100 100 97 100 97 97 94 90 90 90 90 84 84
0 0 0 0 0 0 0 0 10 10 13 19 35 39 39 74 68 61 58 71 87 94 97 100 100 100 100 100 100 100 100 100 100 100 100 100 100 100 100 100 100 94 90 90 90 90 81 77 84
0 0 0 0 0 0 0 6 10 16 19 23 29 29 35 65 71 68 74 77 90 94 94 100 100 100 100 100 100 100 100 100 100 100 100 100 100 100 100 100 100 97 94 94 90 84 81 74 77
0 0 0 0 0 0 0 0 16 16 16 23 35 32 29 65 71 81 87 84 94 94 94 94 97 97 100 100 100 100 100 100 100 100 100 100 100 100 100 100 100 94 90 94 87 77 71 68 68
0 0 0 0 0 0 3 10 16 23 26 42 45 48 45 58 71 87 87 87 87 90 90 94 94 94 94 97 100 100 100 100 100 100 100 100 100 100 100 97 97 94 90 87 81 81 74 61 48
0 0 0 0 0 0 3 6 13 19 29 42 48 48 65 61 77 87 81 84 87 90 90 90 90 90 94 94 97 100 97 100 97 97 97 77 77 81 97 100 100 90 90 87 84 81 65 35 10
0 0 0 0 0 0 3 10 13 23 23 45 55 52 65 61 74 71 77 77 87 90 90 87 90 90 90 94 94 94 94 90 87 90 81 58 61 74 61 84 90 84 71 55 61 55 26 13 3
0 0 0 0 0 0 3 3 13 16 23 42 55 55 65 68 71 68 71 71 68 81 87 81 84 81 81 87 87 77 77 74 74 71 65 55 52 45 45 45 45 35 29 16 23 23 16 10 6
0 0 0 0 3 3 3 10 13 26 32 48 55 58 74 61 61 61 71 65 65 61 65 65 68 68 71 71 71 68 68 61 58 68 58 55 45 35 32 32 29 19 16 10 10 6 6 6 6
0 0 0 0 3 0 3 10 16 26 39 48 58 65 68 55 52 55 58 58 55 52 55 58 61 61 61 65 61 68 58 52 52 52 58 55 35 35 39 32 19 13 10 10 6 3 3 3 6
0 0 0 0 0 0 3 6 16 23 42 58 61 61 71 61 58 55 68 58 55 65 58 58 61 55 61 52 45 52 48 48 48 48 48 48 39 26 26 23 16 10 3 3 0 3 0 0 0
0 0 0 0 0 0 6 13 26 29 48 55 58 74 74 65 55 55 65 61 61 65 58 61 61 55 58 52 42 55 35 45 48 48 42 39 32 26 23 16 10 6 6 3 3 3 0 0 0
0 0 0 0 0 3 0 13 16 32 42 52 58 61 61 61 68 55 58 58 65 61 58 58 58 55 48 42 32 35 35 32 42 42 29 29 32 26 13 3 6 10 6 3 3 0 0 0 0
0 0 0 0 0 0 0 13 23 26 32 39 55 61 68 65 58 58 65 61 55 58 61 52 52 45 52 52 35 35 32 39 45 39 23 16 32 32 19 3 6 6 0 0 0 0 0 0 0
0 0 0 0 0 0 3 6 16 19 29 42 55 58 68 68 71 68 65 65 65 55 58 55 48 48 55 48 39 29 29 42 42 35 26 19 26 29 19 13 6 3 0 0 0 0 0 0 0
0 0 0 0 0 0 3 6 10 19 23 39 48 61 65 61 71 77 71 74 71 61 55 58 52 48 52 52 32 16 13 23 26 35 23 19 19 26 19 10 6 3 0 3 0 0 0 0 0
0 0 0 0 0 3 3 6 6 19 19 39 45 61 65 65 71 77 77 71 71 65 61 61 52 52 48 39 29 23 16 16 16 13 19 19 26 26 16 10 6 6 3 0 0 0 0 0 0
0 0 0 0 0 0 3 0 3 13 23 39 52 55 61 71 68 77 77 71 68 65 61 48 48 52 42 39 32 23 19 6 3 10 16 19 32 35 16 6 6 6 0 0 0 0 0 0 0
0 0 0 0 0 0 0 0 0 13 23 29 48 58 61 71 74 74 74 68 68 68 65 48 45 48 45 39 32 23 16 3 6 6 13 13 23 32 13 6 3 0 0 0 0 0 0 0 0
0 0 0 0 0 0 0 0 0 10 19 32 42 48 58 77 74 71 68 68 68 68 61 61 55 45 48 45 32 23 13 3 6 6 10 6 10 13 16 16 10 0 0 0 0 0 0 0 0
0 0 0 0 0 0 0 0 0 3 19 26 48 52 61 71 71 74 71 68 65 61 65 61 58 58 48 45 42 23 13 6 3 3 3 3 6 13 10 16 10 6 0 0 0 0 0 0 0
0 0 0 0 0 0 0 3 3 3 19 29 42 52 58 61 65 68 71 68 65 65 65 61 58 58 48 48 29 26 19 13 6 10 6 6 6 3 3 6 3 10 10 10 3 0 0 0 0
0 0 0 0 0 0 0 3 10 19 23 26 32 45 48 58 58 58 52 58 65 65 61 58 55 55 42 45 39 26 23 19 16 13 10 6 6 3 3 6 6 10 10 10 0 0 0 0 0
0 0 0 0 0 0 0 3 3 19 26 29 35 45 48 61 55 48 42 52 55 55 52 55 55 48 39 35 32 32 23 19 16 13 13 13 10 6 10 6 3 10 10 10 6 3 0 0 0
0 0 0 0 0 0 0 0 0 6 16 19 26 42 42 48 48 48 42 52 48 42 39 39 39 42 39 32 29 26 26 16 13 13 6 10 10 10 6 3 3 6 6 10 6 3 3 0 0
0 0 0 0 0 0 0 0 3 6 16 13 32 42 45 42 42 39 42 48 45 42 39 32 35 35 32 32 26 19 13 10 13 13 13 6 10 6 6 3 3 3 3 0 6 3 3 3 3
Height
5908 5907 5907 5907 5906 5905 5903 5902 5902 5902 5901 5900 5899 5898 5897 5896 5895 5896 5893 5891 5890 5890 5890 5890 5891 5891 5892 5892 5893 5894 5894 5895 5895 5896 5896 5896 5897 5897 5897 5897 5897 5897 5897 5897 5897 5897 5897 5897 5897
5909 5909 5909 5909 5906 5905 5905 5904 5904 5903 5903 5902 5902 5900 5898 5897 5895 5895 5893 5892 5891 5891 5891 5891 5891 5892 5892 5893 5893 5894 5895 5895 5896 5896 5896 5897 5897 5897 5897 5897 5897 5897 5897 5897 5897 5897 5897 5897 5897
5910 5911 5911 5910 5907 5906 5906 5906 5906 5905 5905 5904 5903 5902 5900 5898 5896 5895 5894 5893 5892 5892 5892 5892 5892 5892 5892 5893 5894 5894 5895 5895 5896 5896 5897 5897 5897 5898 5898 5898 5898 5898 5898 5898 5898 5898 5898 5898 5898
5912 5913 5912 5910 5908 5907 5907 5907 5907 5907 5906 5905 5904 5903 5901 5898 5896 5895 5894 5893 5892 5892 5892 5892 5892 5892 5893 5893 5894 5894 5895 5896 5896 5897 5897 5897 5898 5898 5898 5898 5898 5898 5898 5898 5898 5898 5899 5899 5899
5913 5914 5912 5910 5909 5908 5908 5908 5908 5908 5907 5906 5906 5904 5902 5899 5896 5895 5894 5893 5893 5892 5892 5892 5892 5892 5892 5893 5894 5894 5895 5896 5896 5897 5897 5898 5898 5898 5898 5898 5899 5899 5899 5899 5899 5899 5899 5899 5899
5915 5914 5913 5912 5911 5910 5909 5910 5909 5910 5909 5908 5907 5906 5904 5901 5898 5896 5895 5894 5893 5893 5892 5892 5891 5892 5892 5893 5893 5894 5895 5895 5896 5897 5897 5898 5898 5898 5899 5899 5899 5899 5899 5899 5899 5899 5900 5900 5900
5916 5915 5913 5912 5912 5911 5910 5910 5910 5910 5909 5908 5907 5905 5905 5903 5900 5897 5895 5894 5893 5893 5892 5891 5891 5891 5892 5892 5893 5894 5894 5895 5896 5896 5897 5897 5898 5898 5899 5899 5899 5899 5899 5900 5900 5900 5900 5900 5900
5915 5916 5914 5913 5913 5912 5912 5911 5910 5909 5909 5908 5906 5904 5904 5903 5901 5898 5895 5894 5893 5892 5892 5891 5890 5890 5891 5891 5892 5893 5893 5894 5895 5896 5896 5897 5897 5898 5898 5899 5899 5899 5899 5900 5900 5900 5901 5901 5901
5915 5916 5914 5913 5914 5913 5912 5912 5911 5910 5909 5907 5906 5904 5903 5902 5901 5898 5896 5894 5893 5893 5892 5890 5890 5890 5890 5890 5890 5891 5892 5893 5894 5895 5896 5896 5897 5898 5898 5898 5899 5899 5899 5900 5900 5900 5901 5901 5902
5915 5915 5915 5914 5914 5913 5913 5912 5911 5910 5909 5907 5906 5904 5902 5901 5900 5898 5896 5894 5893 5892 5891 5890 5889 5888 5888 5888 5889 5889 5890 5891 5893 5894 5895 5896 5896 5897 5898 5898 5899 5899 5899 5900 5900 5900 5901 5902 5902
5915 5915 5914 5914 5913 5913 5913 5913 5911 5910 5909 5908 5906 5904 5901 5899 5898 5897 5895 5894 5893 5891 5890 5889 5888 5887 5887 5887 5887 5888 5888 5890 5891 5893 5894 5895 5895 5896 5897 5898 5898 5899 5899 5900 5900 5901 5901 5902 5902
5914 5914 5913 5913 5912 5912 5912 5912 5911 5910 5909 5907 5905 5903 5901 5898 5896 5895 5894 5893 5892 5890 5889 5888 5887 5886 5886 5886 5886 5886 5887 5889 5890 5891 5892 5893 5894 5895 5896 5897 5898 5898 5899 5899 5900 5901 5901 5901 5902
5914 5913 5912 5912 5912 5912 5912 5911 5910 5909 5908 5906 5904 5902 5900 5896 5894 5894 5893 5892 5891 5890 5888 5887 5885 5885 5884 5884 5885 5885 5886 5887 5889 5890 5891 5892 5893 5894 5895 5896 5897 5898 5898 5899 5900 5900 5901 5901 5901
5913 5913 5912 5912 5912 5911 5911 5910 5909 5908 5907 5905 5903 5901 5899 5896 5893 5892 5892 5891 5890 5889 5887 5886 5885 5884 5883 5883 5883 5884 5884 5885 5886 5888 5888 5889 5891 5892 5894 5895 5896 5897 5898 5899 5899 5900 5901 5901 5901
5913 5913 5912 5911 5911 5910 5910 5909 5908 5907 5906 5904 5902 5900 5898 5895 5893 5892 5891 5890 5889 5888 5887 5886 5884 5883 5882 5882 5882 5882 5882 5883 5884 5885 5886 5887 5889 5891 5892 5894 5895 5896 5897 5898 5899 5900 5900 5901 5901
5911 5911 5911 5910 5909 5909 5910 5908 5907 5905 5904 5903 5901 5899 5897 5895 5893 5891 5889 5888 5888 5887 5886 5885 5883 5882 5881 5881 5880 5880 5880 5881 5882 5883 5884 5885 5887 5889 5891 5892 5894 5895 5896 5897 5898 5899 5900 5900 5901
5909 5909 5909 5908 5908 5907 5907 5906 5905 5904 5903 5902 5900 5897 5895 5893 5891 5889 5888 5887 5886 5885 5884 5883 5882 5881 5880 5879 5879 5878 5878 5879 5880 5881 5882 5883 5885 5887 5889 5891 5893 5894 5895 5895 5897 5898 5899 5899 5900
5907 5907 5906 5906 5905 5905 5905 5904 5903 5902 5901 5900 5898 5896 5894 5892 5890 5889 5887 5885 5884 5883 5882 5880 5879 5879 5879 5878 5877 5877 5877 5877 5878 5878 5880 5881 5883 5886 5888 5889 5891 5892 5893 5894 5896 5897 5898 5898 5899
5904 5904 5904 5904 5903 5903 5903 5902 5901 5900 5899 5898 5897 5896 5894 5892 5889 5887 5885 5883 5882 5881 5880 5879 5878 5877 5877 5876 5876 5876 5876 5876 5876 5877 5879 5880 5882 5884 5886 5888 5890 5891 5892 5893 5894 5896 5897 5897 5898
5901 5901 5901 5902 5901 5901 5900 5900 5899 5898 5897 5896 5895 5894 5892 5891 5888 5886 5883 5881 5880 5879 5878 5877 5876 5876 5875 5875 5874 5874 5874 5874 5875 5876 5877 5879 5880 5882 5884 5886 5888 5889 5891 5892 5893 5894 5895 5896 5897
5897 5898 5899 5899 5899 5898 5898 5898 5897 5896 5895 5894 5893 5892 5891 5889 5886 5884 5881 5879 5877 5876 5875 5875 5875 5874 5874 5873 5872 5872 5872 5873 5873 5874 5875 5877 5878 5880 5882 5884 5886 5887 5889 5890 5891 5892 5893 5894 5895
5894 5895 5895 5895 5895 5895 5895 5894 5895 5893 5892 5892 5891 5890 5888 5886 5884 5881 5878 5875 5874 5874 5873 5872 5872 5872 5872 5871 5871 5871 5871 5871 5872 5873 5874 5875 5876 5878 5879 5881 5883 5885 5886 5888 5889 5890 5891 5892 5893
5890 5891 5891 5891 5892 5892 5892 5891 5892 5890 5889 5889 5888 5887 5885 5883 5881 5879 5877 5874 5873 5872 5872 5870 5870 5870 5870 5870 5869 5869 5869 5869 5870 5871 5872 5873 5874 5875 5877 5879 5880 5882 5884 5885 5887 5888 5889 5890 5890
5885 5887 5887 5887 5888 5889 5889 5888 5888 5887 5887 5886 5885 5883 5881 5881 5879 5877 5875 5873 5872 5871 5870 5869 5868 5868 5868 5867 5867 5867 5867 5867 5868 5869 5869 5870 5872 5873 5874 5876 5878 5879 5881 5882 5884 5885 5886 5887 5887
5881 5882 5883 5883 5884 5885 5885 5884 5885 5884 5884 5883 5882 5881 5879 5878 5877 5875 5873 5872 5871 5870 5868 5867 5867 5866 5865 5865 5865 5865 5865 5865 5866 5866 5867 5868 5869 5870 5871 5873 5875 5876 5878 5879 5880 5881 5882 5883 5884
5876 5878 5880 5880 5881 5882 5881 5880 5882 5880 5881 5881 5880 5879 5877 5875 5874 5873 5872 5871 5870 5868 5867 5865 5864 5864 5863 5863 5863 5863 5863 5863 5863 5864 5864 5865 5866 5868 5869 5870 5872 5873 5874 5876 5877 5878 5879 5879 5880
5871 5873 5875 5875 5876 5877 5877 5877 5878 5877 5877 5878 5878 5877 5875 5873 5872 5871 5870 5869 5868 5866 5865 5863 5862 5862 5861 5860 5860 5860 5860 5861 5861 5861 5862 5863 5864 5865 5866 5867 5869 5870 5871 5872 5873 5874 5874 5875 5876
5867 5869 5869 5870 5871 5872 5874 5874 5875 5874 5874 5875 5875 5874 5873 5872 5870 5868 5867 5867 5866 5865 5863 5862 5861 5860 5859 5858 5858 5858 5858 5858 5858 5858 5859 5860 5861 5862 5863 5864 5865 5866 5867 5867 5868 5869 5870 5870 5871
5862 5864 5864 5866 5867 5868 5869 5872 5872 5872 5872 5872 5872 5871 5871 5869 5868 5867 5866 5865 5864 5863 5862 5861 5860 5859 5858 5857 5856 5856 5856 5856 5856 5856 5856 5857 5857 5858 5859 5860 5861 5862 5862 5863 5863 5864 5865 5865 5866
5856 5858 5860 5862 5863 5864 5865 5869 5868 5869 5869 5869 5869 5868 5867 5867 5866 5865 5864 5864 5862 5862 5861 5860 5859 5857 5856 5855 5855 5854 5854 5854 5854 5854 5854 5854 5854 5855 5855 5856 5857 5857 5858 5858 5858 5859 5859 5860 5860
Wind_Speed
14 14 14 14 17 20 21 21 20 19 17 18 17 16 16 15 13 11 9 6 5 5 4 3 3 3 3 2 1 1 1 1 2 2 3 2 2 2 2 1 1 2 2 2 3 4 4 4 4
13 13 13 13 17 18 20 20 19 19 19 19 17 16 15 13 13 11 9 7 6 4 3 2 2 2 2 1 1 1 1 1 2 2 3 3 3 3 3 2 2 2 2 2 3 4 4 4 4
11 11 12 14 16 17 18 18 19 20 19 18 17 16 15 13 12 11 9 8 7 4 2 1 1 1 2 2 2 2 2 2 2 2 3 3 3 3 3 3 3 3 2 2 3 3 3 4 4
9 9 10 13 15 16 16 17 18 19 19 17 17 17 16 15 13 12 11 10 8 5 3 1 0 2 2 3 3 3 3 3 2 2 3 3 3 3 3 3 2 3 3 3 3 3 3 4 4
6 7 9 11 13 13 14 15 17 19 19 17 16 17 16 16 15 13 11 10 9 7 3 2 1 2 3 4 4 4 4 3 3 3 3 3 3 3 2 3 3 3 3 3 3 3 3 4 4
4 5 8 10 10 10 12 13 14 16 18 17 17 16 15 15 14 12 12 11 9 8 5 3 2 3 4 5 5 5 4 4 4 3 3 3 3 3 3 3 3 3 3 3 3 3 3 4 4
3 4 8 10 8 8 10 12 14 16 17 17 16 16 15 14 13 12 11 11 9 8 7 4 3 3 4 5 5 5 5 5 5 4 4 3 3 3 3 3 3 3 3 3 3 3 3 4 4
2 3 5 8 8 8 10 11 13 15 16 17 17 17 15 14 13 12 12 11 10 9 7 6 4 3 4 5 6 6 6 6 5 5 4 4 4 3 3 3 3 3 3 3 3 3 3 4 3
2 3 4 5 6 7 9 11 13 15 17 17 18 18 17 15 14 13 12 10 9 9 9 7 5 4 4 5 5 6 7 7 7 6 6 5 5 4 4 4 4 3 3 3 3 3 3 3 3
2 1 2 4 5 5 6 9 13 15 16 16 17 18 16 16 14 13 12 10 9 9 9 7 6 5 4 5 6 6 7 7 8 7 7 7 6 5 5 4 4 3 3 3 4 3 3 3 3
4 3 1 2 4 5 7 9 11 14 15 15 16 16 16 16 15 14 12 10 9 8 8 8 8 6 5 4 5 5 7 8 8 8 8 7 7 7 6 5 4 4 4 4 4 4 3 3 3
7 5 4 4 4 5 7 8 11 13 14 15 15 14 16 16 14 14 12 10 9 8 8 8 8 7 6 4 4 5 6 7 8 9 9 9 8 8 7 6 5 4 4 4 4 4 3 3 3
7 6 5 4 3 4 6 7 10 12 14 15 16 16 16 17 15 13 11 11 9 9 9 9 8 8 6 4 4 5 6 7 9 9 10 9 9 8 7 7 6 5 5 5 4 4 4 3 3
5 3 2 3 3 4 5 7 11 12 13 15 16 16 15 15 15 13 12 11 8 8 9 8 8 8 6 3 4 5 6 8 9 10 10 10 10 10 9 8 7 6 6 6 5 5 4 3 3
4 2 1 2 3 5 7 8 11 12 13 16 17 16 16 15 14 14 12 11 10 9 8 8 8 7 5 4 4 4 5 7 10 10 10 10 11 11 10 9 8 7 7 6 6 5 5 4 4
5 4 3 2 3 5 8 9 12 13 14 15 17 17 17 17 15 14 12 11 10 9 9 8 8 8 6 4 4 4 5 7 9 10 11 11 11 11 12 11 10 9 8 7 8 6 5 5 5
7 6 6 4 3 6 8 10 13 13 15 16 17 18 18 17 15 13 12 12 11 10 9 8 9 8 7 5 4 4 5 6 9 10 11 11 12 12 12 11 10 10 9 8 8 7 6 6 6
9 9 7 6 5 7 9 11 13 15 15 15 16 18 17 16 15 14 13 12 12 12 10 9 8 8 7 5 5 5 5 6 8 10 10 11 12 12 12 12 11 10 10 9 9 8 7 7 6
11 11 9 7 6 8 9 12 13 14 14 15 16 17 17 17 15 14 14 13 13 12 11 9 8 8 7 6 6 5 5 6 8 9 10 10 12 12 12 13 12 12 11 10 9 9 8 8 7
12 12 10 9 9 11 11 12 13 14 15 15 16 18 17 17 15 14 14 14 13 12 11 9 8 8 7 7 6 5 5 6 7 9 11 11 13 13 13 13 13 13 12 11 10 9 9 9 8
13 13 11 11 13 14 14 13 13 13 14 15 16 17 16 16 15 15 14 13 12 11 11 9 8 8 7 7 6 5 6 6 7 8 10 11 13 14 14 15 14 13 13 12 11 11 10 10 9
14 13 13 14 14 14 16 16 13 13 13 14 15 15 16 16 15 14 13 12 10 10 10 9 8 7 7 7 6 5 6 6 7 8 9 11 12 12 13 15 15 14 14 14 13 12 11 11 11
15 15 15 15 15 15 15 16 13 14 14 14 14 15 15 16 15 14 13 11 9 8 8 8 7 7 7 7 7 7 7 7 8 9 9 11 12 13 14 15 15 15 15 15 14 13 13 13 12
16 17 17 16 15 14 12 15 15 15 14 14 14 15 15 15 15 13 12 10 9 8 8 7 7 7 7 8 8 8 8 9 9 9 9 11 12 13 14 14 15 15 15 15 15 15 15 14 14
18 17 17 17 15 13 13 14 13 13 14 14 14 15 15 14 13 12 12 10 9 9 8 7 7 7 7 7 8 8 8 9 9 10 10 10 12 13 14 14 14 15 16 16 16 16 16 16 16
17 17 18 17 16 14 14 14 12 13 14 14 13 14 14 13 12 11 11 10 8 8 8 8 7 8 8 8 8 8 8 9 9 10 10 11 12 13 15 15 15 15 16 16 17 17 18 18 18
17 18 18 19 18 18 15 14 12 14 16 15 14 14 13 12 11 10 9 8 7 8 8 7 7 7 8 8 8 8 8 9 9 9 10 11 12 13 15 16 16 16 17 17 18 18 19 19 20
18 17 19 21 20 20 17 15 14 14 14 13 14 13 12 13 11 9 8 7 7 7 7 7 6 6 7 7 6 6 7 8 9 9 10 11 13 14 15 16 17 18 18 19 19 19 20 20 21
18 17 18 20 22 21 20 18 16 16 16 15 14 12 11 10 9 8 8 8 7 7 8 8 8 7 7 6 6 6 6 7 8 9 10 11 13 14 15 16 17 17 18 18 19 20 21 21 21
21 19 19 20 20 21 21 19 18 17 16 15 14 13 10 9 9 9 8 8 7 8 8 8 8 7 6 5 5 6 6 7 8 9 10 11 12 13 15 16 17 18 18 19 20 21 21 21 21
Wind_Direction
96 90 81 76 65 58 49 42 35 34 39 40 35 30 28 31 33 36 38 44 57 73 89 105 130 148 150 151 174 205 274 301 318 318 300 294 286 283 268 233 206 180 156 147 145 132 122 116 115
98 92 83 80 70 60 50 40 32 31 32 35 34 32 29 30 34 37 41 43 49 61 79 99 126 161 170 173 187 212 243 295 312 310 298 283 283 283 265 246 223 204 183 162 150 138 127 122 119
98 94 85 76 69 60 50 37 31 28 27 28 32 33 34 32 34 35 36 39 43 48 63 90 127 164 187 201 220 225 233 253 284 290 293 283 276 277 259 240 219 210 194 174 160 145 138 131 126
95 96 84 76 67 58 46 31 27 19 20 25 29 30 32 32 33 32 30 31 33 32 30 44 203 211 209 206 215 229 237 243 261 282 283 275 262 268 255 237 219 211 198 184 169 156 145 135 134
93 92 90 83 71 58 41 23 18 16 15 20 24 27 29 30 30 28 30 27 25 27 24 355 288 232 225 225 226 230 235 238 247 265 275 269 252 259 250 237 227 214 202 191 178 163 153 143 141
99 84 83 76 70 58 42 20 6 5 7 12 16 24 30 31 29 23 26 24 24 22 8 337 281 248 240 234 231 232 234 234 236 249 260 258 248 254 255 241 234 223 213 198 184 170 162 150 145
94 86 83 75 61 52 34 16 359 358 3 9 10 14 21 27 24 17 16 17 14 9 360 348 310 265 251 242 236 240 238 232 233 240 247 251 242 241 249 247 242 231 218 207 190 176 165 156 148
105 84 87 73 55 34 23 5 350 353 357 3 5 2 6 17 17 11 9 14 12 6 2 357 340 297 265 255 242 241 240 235 235 238 235 236 233 239 244 242 242 233 220 210 198 178 161 152 152
120 89 76 65 52 31 15 356 343 343 346 353 355 353 355 5 13 10 6 7 9 7 3 360 350 327 280 264 254 247 243 236 235 235 233 229 229 235 250 247 247 239 219 212 202 184 164 154 158
196 192 41 37 22 7 351 339 333 334 338 345 348 345 347 357 5 6 4 2 2 0 1 358 352 338 306 278 262 248 242 235 232 231 234 229 226 231 245 246 240 232 223 207 198 188 182 170 169
233 239 297 351 347 333 322 319 320 324 325 332 340 341 343 348 355 358 359 357 354 352 356 352 350 344 325 296 263 248 231 226 227 228 230 229 230 231 237 238 231 229 217 206 199 194 194 184 180
244 248 261 292 305 314 318 320 314 318 322 331 337 338 342 344 348 353 355 353 352 352 353 348 345 341 325 299 263 245 227 223 225 229 230 230 229 232 234 222 217 213 208 203 200 201 201 197 201
262 266 270 281 281 306 320 322 315 318 326 330 333 336 340 342 346 351 352 353 350 353 353 348 343 339 329 301 268 256 238 233 226 229 231 232 229 225 220 211 210 205 203 206 207 210 207 200 199
256 265 291 312 313 314 319 321 319 323 327 331 339 342 342 345 346 347 348 346 346 351 352 354 344 335 334 318 265 261 249 236 228 227 230 230 227 223 216 215 213 205 206 212 212 212 209 188 179
244 223 252 298 326 330 322 318 319 324 327 330 335 340 339 340 342 341 343 340 340 344 347 349 343 338 337 324 285 269 259 241 231 226 223 223 218 215 212 216 213 210 210 210 209 210 208 192 182
235 234 243 274 320 329 328 326 321 325 329 331 334 335 334 336 335 337 337 335 336 335 336 339 340 339 334 323 304 273 255 241 232 225 225 219 214 212 212 217 215 213 214 214 209 210 205 196 193
239 238 240 243 281 303 314 319 319 323 328 329 332 334 335 330 329 334 330 328 330 330 329 329 333 332 327 322 306 273 264 249 237 225 223 217 214 213 212 214 215 213 215 211 208 206 203 202 201
243 242 242 248 275 296 301 306 308 313 319 325 327 332 333 329 328 327 326 321 322 324 325 323 325 323 320 318 303 277 262 243 232 226 222 215 211 211 212 211 211 211 210 206 204 203 205 208 210
249 249 250 255 272 284 290 296 299 304 312 319 322 325 325 329 329 325 320 316 315 316 318 319 315 314 311 311 301 278 250 238 231 227 221 211 209 213 212 209 209 208 205 204 206 208 212 214 216
252 255 247 244 253 267 279 286 290 294 302 308 318 322 322 325 325 324 317 309 307 308 309 307 302 306 306 304 300 281 259 242 239 232 223 218 216 216 213 211 209 208 208 211 212 214 217 219 224
246 250 248 242 248 259 269 276 281 286 294 303 313 322 324 325 322 320 319 309 302 301 301 294 289 295 296 295 291 272 264 245 227 224 224 224 219 218 218 215 214 214 215 217 219 221 223 226 229
244 245 248 250 253 254 265 272 277 279 285 300 312 318 323 326 326 326 324 315 304 298 301 291 278 284 287 291 288 275 263 238 228 230 233 227 221 220 221 219 220 220 221 223 225 226 226 229 232
247 247 251 255 257 259 263 271 273 274 283 297 309 312 318 325 327 327 324 316 306 295 300 295 280 280 282 281 280 270 254 240 234 237 236 230 225 225 222 222 223 222 226 229 231 231 230 232 235
246 248 251 255 257 259 261 269 270 272 282 295 306 313 320 323 326 326 324 317 306 298 304 297 289 281 279 274 273 265 250 242 239 237 236 231 226 226 225 225 225 225 228 231 234 236 235 236 239
246 249 252 253 255 253 257 266 271 270 279 295 309 315 318 318 321 323 321 317 314 312 311 300 291 287 281 276 271 263 251 243 240 236 236 233 227 225 225 226 228 229 231 235 238 240 240 241 244
250 251 254 255 253 247 251 263 271 275 286 295 301 312 314 320 323 323 322 315 312 315 314 300 290 286 282 277 272 261 254 248 244 241 239 236 231 231 230 231 232 233 236 239 241 243 244 245 246
245 250 253 252 250 248 250 259 273 278 290 294 296 309 314 321 321 317 319 315 314 318 316 304 297 294 289 279 272 263 253 248 251 249 243 239 236 238 237 237 238 240 242 245 246 246 247 249 250
238 245 248 248 249 248 250 256 266 281 290 298 303 305 314 320 324 321 318 323 325 324 327 330 314 308 302 288 277 270 258 253 251 250 243 242 243 243 243 245 242 244 246 248 250 250 250 252 253
235 240 247 249 249 249 249 252 259 274 287 293 298 302 310 322 326 327 319 319 321 325 328 329 323 316 306 295 282 276 272 261 261 256 250 251 250 249 250 249 245 247 248 250 252 253 253 254 255
236 239 246 250 250 250 251 251 257 265 278 286 295 303 309 316 321 324 322 317 315 316 317 322 327 327 314 297 293 286 282 272 266 262 260 259 256 253 252 251 250 250 252 252 253 254 254 254 256